KJ6MC Weather Reports


Display with metric or nautical units.
time (UTC)temp
F
wind
direction
speed
MPH
gust
MPH
rain 1hr
in
rain 24hr
in
rain mn
in
humidity
%
barometer
mb
20170823170755 77 309 0.0 3.0 0.00 0.00 0.00 56 1012.9
20170823164755 75 313 1.0 4.0 0.00 0.00 0.00 59 1012.9
20170823163755 73 240 2.0 4.0 0.00 0.00 0.00 62 1012.9
20170823155754 70 296 0.0 4.0 0.00 0.00 0.00 66 1012.9
20170823154754 70 345 0.0 2.0 0.00 0.00 0.00 67 1012.8
20170823153754 70 3 0.0 2.0 0.00 0.00 0.00 66 1012.8
20170823152753 69 226 1.0 2.0 0.00 0.00 0.00 67 1012.8
20170823151753 68 256 0.0 1.0 0.00 0.00 0.00 71 1012.8
20170823145753 66 245 0.0 3.0 0.00 0.00 0.00 75 1012.9
20170823144753 66 171 2.0 3.0 0.00 0.00 0.00 76 1012.8
20170823142753 64 262 0.0 2.0 0.00 0.00 0.00 80 1012.6
20170823141752 63 262 0.0 2.0 0.00 0.00 0.00 82 1012.6
20170823140752 62 222 0.0 2.0 0.00 0.00 0.00 84 1012.5
20170823135752 61 256 0.0 2.0 0.00 0.00 0.00 84 1012.5
20170823133752 61 256 0.0 1.0 0.00 0.00 0.00 85 1012.6
20170823132752 61 248 0.0 3.0 0.00 0.00 0.00 84 1012.5
20170823130751 62 225 0.0 3.0 0.00 0.00 0.00 83 1012.4
20170823124751 62 222 0.0 2.0 0.00 0.00 0.00 82 1012.1
20170823123751 62 244 0.0 2.0 0.00 0.00 0.00 82 1012.2
20170823121751 62 246 1.0 1.0 0.00 0.00 0.00 81 1012.1
20170823120751 63 210 0.0 1.0 0.00 0.00 0.00 80 1012.1
20170823115751 63 240 3.0 4.0 0.00 0.00 0.00 80 1012.1
20170823114751 63 261 1.0 4.0 0.00 0.00 0.00 79 1012.2
20170823113750 63 257 0.0 3.0 0.00 0.00 0.00 78 1012.2
20170823112750 63 256 0.0 2.0 0.00 0.00 0.00 78 1012.3
20170823110750 63 244 0.0 1.0 0.00 0.00 0.00 77 1012.3
20170823103749 64 235 0.0 1.0 0.00 0.00 0.00 75 1012.3
20170823100749 65 248 0.0 3.0 0.00 0.00 0.00 73 1012.6
20170823095749 65 250 0.0 5.0 0.00 0.00 0.00 72 1012.7
20170823091749 65 176 1.0 3.0 0.00 0.00 0.00 72 1012.7
20170823090748 65 224 2.0 3.0 0.00 0.00 0.00 73 1012.9
20170823084748 66 113 0.0 0.0 0.00 0.00 0.00 72 1012.8
20170823082748 66 113 0.0 1.0 0.00 0.00 0.00 71 1012.9
20170823080748 67 112 0.0 1.0 0.00 0.00 0.00 69 1012.9
20170823075747 67 248 0.0 2.0 0.00 0.00 0.00 68 1013.0
20170823073747 68 283 0.0 0.0 0.00 0.00 0.00 67 1012.9
20170823072747 68 235 0.0 3.0 0.00 0.00 0.00 67 1013.0
20170823070747 69 238 0.0 2.0 0.00 0.00 0.00 65 1012.7
20170823064746 70 260 1.0 2.0 0.00 0.00 0.00 64 1012.7
20170823061746 70 264 2.0 4.0 0.00 0.00 0.00 62 1012.6
20170823054746 71 256 3.0 5.0 0.00 0.00 0.00 59 1012.6
20170823045745 74 242 2.0 6.0 0.00 0.00 0.00 56 1012.3
20170823043744 74 232 2.0 5.0 0.00 0.00 0.00 55 1012.3
20170823042744 75 232 2.0 8.0 0.00 0.00 0.00 54 1012.3
20170823041744 75 252 2.0 8.0 0.00 0.00 0.00 53 1012.3
20170823035744 76 287 2.0 9.0 0.00 0.00 0.00 52 1012.2
20170823034744 77 279 3.0 9.0 0.00 0.00 0.00 50 1012.2
20170823032743 79 313 1.0 5.0 0.00 0.00 0.00 47 1012.1
20170823025743 81 235 2.0 9.0 0.00 0.00 0.00 45 1011.9
20170823024743 82 220 0.0 9.0 0.00 0.00 0.00 44 1011.8
20170823023743 83 274 1.0 7.0 0.00 0.00 0.00 42 1011.9
20170823021743 84 261 3.0 9.0 0.00 0.00 0.00 39 1011.8
20170823015742 86 288 2.0 8.0 0.00 0.00 0.00 39 1011.6
20170823014742 88 252 1.0 7.0 0.00 0.00 0.00 39 1011.5
20170823013742 88 224 5.0 7.0 0.00 0.00 0.00 37 1011.5
20170823012742 89 236 3.0 7.0 0.00 0.00 0.00 37 1011.4
20170823011741 90 256 1.0 7.0 0.00 0.00 0.00 37 1011.3
20170823004741 93 294 1.0 7.0 0.00 0.00 0.00 35 1011.5
20170823001741 94 246 0.0 4.0 0.00 0.00 0.00 35 1011.8
20170822235741 95 266 2.0 7.0 0.00 0.00 0.00 34 1012.0
20170822234740 96 254 0.0 7.0 0.00 0.00 0.00 33 1012.0
20170822233740 96 186 0.0 4.0 0.00 0.00 0.00 35 1012.2
20170822232740 96 172 3.0 5.0 0.00 0.00 0.00 33 1012.3
20170822223739 96 270 0.0 2.0 0.00 0.00 0.00 36 1012.7
20170822221739 94 334 1.0 3.0 0.00 0.00 0.00 36 1012.8
20170822215739 92 193 1.0 6.0 0.00 0.00 0.00 39 1013.1
20170822214738 92 344 2.0 6.0 0.00 0.00 0.00 39 1013.2
20170822203738 88 245 2.0 6.0 0.00 0.00 0.00 43 1014.4
20170822202737 88 63 1.0 5.0 0.00 0.00 0.00 42 1014.5
20170822201738 87 240 2.0 5.0 0.00 0.00 0.00 45 1014.7
20170822200737 87 332 1.0 5.0 0.00 0.00 0.00 44 1014.7
20170822195737 86 315 0.0 6.0 0.00 0.00 0.00 47 1014.9
20170822194737 85 224 1.0 6.0 0.00 0.00 0.00 46 1015.0
20170822191736 83 161 2.0 6.0 0.00 0.00 0.00 48 1015.4
20170822190736 82 188 2.0 6.0 0.00 0.00 0.00 50 1015.5
20170822185736 81 272 3.0 9.0 0.00 0.00 0.00 51 1015.6
20170822183736 80 231 3.0 7.0 0.00 0.00 0.00 54 1015.8
20170822181736 79 199 0.0 5.0 0.00 0.00 0.00 54 1015.7
20170822180736 77 311 0.0 4.0 0.00 0.00 0.00 57 1015.8
20170822174735 74 255 3.0 5.0 0.00 0.00 0.00 61 1015.8
20170822173735 74 237 4.0 5.0 0.00 0.00 0.00 61 1015.8